Zurück zum Katalog

STARLINK-33677

AktivKommunikationVLEO
NORAD 63410·PAYLOAD·🇺🇸 United States

Gestartet Mar 31, 2025 von Cape Canaveral Space Force Station

Loading…

Nächste Überflüge (nächste 24 Stunden)

TLE

AktuellSource: CelesTrak SupGP

Epoche: Sep 14, 2026, 21:16 UTC

1 63410C 25065M   26257.88659722 -.00041492  00000+0 -15033-2 0  2573
2 63410  43.0025 118.5291 0001273 271.1607 169.0992 15.27588642    19

Verfolge STARLINK-33677 in Echtzeit mit AllMySat

Download on the App Store